Location: Staunton
(38.1490°N, 79.0720°W)
Time: 00:05:22
(UTC-05:00)

ISS - Pass Details

Date: 25 November 2020
Orbit: 418 x 421 km, 51.6° (Epoch: 26 November)

Event Time Altitude Azimuth Distance (km) Brightness Sun altitude
Rises 17:31:19 0° 265° (W) 2,354 1.8 -6.8°
Reaches altitude 10° 17:33:46 10° 282° (WNW) 1,493 0.0 -7.2°
Maximum altitude 17:36:23 21° 333° (NNW) 1,002 -1.8 -7.7°
Drops below altitude 10° 17:39:01 10° 25° (NNE) 1,497 -1.4 -8.2°
Enters shadow 17:39:50 - 33° (NNE) 1,765 -1.1 -8.3°
